Dewpoint
51 50 50 51 51 51 52 52 51 52 52 53 53 53 52 52 53 53 53 53 52 52 52 52 51 52 52 52 51 51 53 47 45 43 42 39 44 58 56 54 55 55 57 36 32 31 30 28 26 23 17 16 16 20 23 24 20 16 13 11 8 2 2 -1 -0 -1 8 6 8 9 9 9 37 48 53 56 55 55 56 57 56 57 58 60 61 64 64 65
50 50 50 51 50 51 51 51 51 51 52 52 52 53 52 52 52 53 53 52 52 52 52 52 51 51 51 51 52 52 50 47 44 43 41 49 54 56 57 59 58 56 57 29 26 25 23 23 22 17 15 13 22 12 25 19 23 12 10 8 4 3 1 4 4 8 8 9 10 8 8 7 29 49 52 49 52 54 54 55 56 58 59 61 61 62 64 65
49 49 50 50 51 51 50 50 51 51 51 52 52 52 52 53 53 53 53 53 53 52 52 52 52 51 51 52 52 53 49 44 44 41 41 55 54 58 59 60 57 56 48 23 24 21 19 19 19 14 13 12 15 15 20 22 20 12 12 10 8 8 6 7 11 10 11 11 10 9 7 6 15 44 47 45 45 49 46 50 54 55 57 59 60 62 64 65
50 50 49 50 51 50 51 50 50 51 51 52 52 52 53 52 53 53 53 52 52 53 52 52 52 52 51 52 54 50 46 44 39 36 45 57 57 57 60 61 59 55 40 24 21 19 18 17 18 13 9 10 15 18 14 21 16 13 14 7 2 7 7 4 9 12 12 11 10 9 8 7 13 17 36 40 39 43 35 41 48 51 56 59 61 61 64 65
49 49 50 50 50 50 50 50 50 51 51 52 52 52 53 52 53 54 53 53 52 52 51 51 51 51 51 51 53 49 46 36 29 43 56 60 58 58 60 62 58 43 32 24 21 20 19 19 16 12 12 10 17 16 13 19 15 18 11 4 8 12 5 9 9 12 12 11 10 9 7 6 8 23 26 37 28 26 27 31 45 49 57 59 61 61 63 64
50 50 50 49 49 49 50 50 50 50 51 51 51 52 52 52 53 53 53 53 53 52 51 51 51 51 51 53 49 47 42 4 31 38 64 61 58 58 61 61 58 38 31 22 17 17 17 17 15 15 12 6 17 12 11 16 17 13 13 11 15 11 6 7 10 11 11 10 9 8 7 7 6 10 17 31 29 38 44 48 50 52 58 60 62 62 63 64
50 50 50 50 50 50 50 50 51 51 50 50 51 51 52 52 53 53 53 52 52 52 52 51 51 51 52 53 48 44 38 17 28 46 64 62 59 58 61 58 55 33 28 20 17 16 17 16 13 11 8 10 13 11 13 17 17 10 7 12 11 11 10 9 8 11 10 10 9 8 8 6 6 5 23 28 31 45 47 48 52 54 59 61 61 63 63 63
49 49 50 50 49 50 49 50 50 50 51 50 51 51 52 52 52 53 52 52 52 52 52 52 51 50 53 46 43 42 31 5 36 56 64 61 56 55 58 40 33 29 23 19 17 15 16 14 12 10 9 7 13 11 16 15 14 11 8 13 12 12 11 10 9 10 9 9 9 8 7 6 6 5 17 20 32 50 50 51 51 55 58 61 62 62 63 63
50 50 50 50 50 49 49 50 50 50 50 50 50 51 51 52 51 52 52 52 52 52 51 51 51 51 53 48 41 20 -0 38 46 52 57 54 48 49 46 37 32 24 22 20 18 16 15 14 11 15 8 8 12 10 19 12 11 11 9 10 12 11 11 10 9 8 7 8 9 8 7 6 6 9 9 21 46 49 54 53 53 57 58 60 61 62 63 63
49 49 50 50 50 50 50 49 50 50 51 51 50 51 51 51 52 52 52 51 51 51 51 52 50 51 47 44 40 21 27 43 47 53 54 49 47 45 40 31 30 24 22 20 19 17 14 15 13 14 18 10 15 9 15 9 6 11 9 12 11 9 9 9 8 8 9 8 8 7 5 6 9 16 7 43 51 53 53 54 56 57 58 59 60 62 63 63
49 50 50 50 50 50 50 50 50 50 51 51 51 50 51 51 52 51 52 52 51 50 51 52 53 51 46 40 29 11 32 41 41 48 52 52 46 39 33 32 29 26 23 21 19 17 14 18 21 17 17 11 12 11 13 10 8 8 9 9 9 8 8 8 9 9 8 6 8 6 4 12 20 21 11 44 53 54 53 55 56 56 58 59 60 61 63 64
49 49 50 50 49 50 50 50 50 50 50 51 51 50 50 50 50 51 51 52 51 50 50 51 51 48 44 41 30 21 38 35 39 45 50 46 37 31 31 31 30 27 26 23 21 18 16 21 24 18 10 15 8 12 9 10 10 9 8 6 5 5 6 6 6 5 8 5 6 6 7 10 24 13 25 49 51 54 54 55 56 56 57 58 58 60 62 64
49 49 50 50 49 49 50 50 50 50 50 50 50 50 50 50 50 51 51 51 51 50 51 49 49 46 45 38 31 28 26 30 38 40 45 44 38 34 34 34 32 29 26 22 19 21 17 26 26 20 19 12 11 7 11 12 9 11 9 5 4 5 3 3 4 5 6 5 5 4 3 3 15 11 36 53 51 53 55 54 55 56 57 57 58 58 60 63
49 49 49 50 50 49 50 50 50 50 50 50 50 49 50 49 49 50 51 51 51 51 52 52 49 44 47 34 27 28 33 38 38 39 40 40 34 32 34 34 32 29 29 27 22 21 19 27 28 24 22 19 13 16 12 11 11 5 5 6 5 1 0 0 4 4 4 5 4 3 6 -1 4 14 40 50 51 51 49 52 55 55 56 57 58 57 59 63
49 49 49 50 50 50 49 50 50 50 50 50 50 50 49 50 49 50 50 50 50 51 50 52 48 47 46 36 35 45 51 42 40 36 36 34 30 28 31 32 29 29 29 24 19 20 20 25 26 20 16 20 19 12 9 8 8 4 6 4 -1 3 -1 4 4 4 1 4 4 2 8 -0 2 25 45 51 51 49 47 51 53 56 56 59 58 57 59 62
49 49 49 49 50 50 50 50 50 50 50 50 49 49 50 50 50 50 50 51 50 51 49 47 46 44 40 33 34 48 42 35 34 36 35 31 28 20 27 29 28 28 29 24 22 20 19 20 18 19 18 16 15 9 6 6 7 6 5 14 3 0 -2 2 4 4 2 4 3 1 -1 -3 -1 27 47 50 49 48 46 50 54 56 56 59 57 57 59 62
49 49 48 49 50 50 50 50 49 50 49 49 49 49 50 50 49 47 51 51 50 50 47 43 44 46 41 29 31 28 26 29 34 36 36 34 29 22 26 27 26 25 24 21 21 20 21 20 22 21 17 11 11 9 8 8 11 8 3 7 9 3 -2 -1 6 6 8 6 2 2 -0 2 14 27 45 49 47 47 45 49 53 55 56 57 57 56 59 61
49 49 49 49 49 50 50 50 49 49 49 49 48 49 50 51 51 50 50 51 48 48 47 47 45 44 35 35 25 24 25 28 30 35 37 34 25 21 22 20 22 19 17 17 19 18 21 22 17 16 17 18 15 10 10 7 13 11 11 10 9 6 4 -2 4 8 11 9 6 5 4 2 3 19 41 48 48 47 47 49 53 54 55 56 55 55 58 60
48 48 48 49 49 49 50 49 49 49 49 49 48 50 52 52 49 48 46 45 45 47 44 44 43 31 21 23 23 23 24 29 31 33 33 27 22 19 17 18 17 15 16 18 18 20 21 23 22 18 17 13 10 6 5 6 5 6 7 4 5 7 2 2 8 13 10 12 6 7 7 4 5 17 36 48 50 50 50 53 54 54 54 55 55 54 56 59
48 48 48 48 49 49 50 49 49 49 50 48 47 49 51 49 48 47 46 46 42 32 27 29 36 31 28 27 25 28 31 30 28 30 32 23 21 19 19 15 15 15 20 22 22 25 20 20 17 15 12 15 19 16 18 11 11 8 6 6 5 5 3 3 12 15 14 13 12 11 12 9 9 12 39 49 51 51 51 53 53 53 54 53 54 54 57 59
48 48 48 48 49 49 49 49 50 50 49 47 47 43 29 30 28 26 33 36 41 37 34 32 31 31 29 30 30 28 28 27 27 27 31 24 20 19 18 18 17 22 20 17 25 30 22 19 17 17 18 19 19 25 24 22 20 9 9 7 4 6 9 8 12 14 18 24 13 16 13 13 13 21 41 49 50 49 50 51 53 53 52 53 55 55 57 59
48 48 48 48 49 49 49 49 49 50 49 48 44 39 28 31 34 36 34 29 31 33 35 34 33 32 34 33 32 32 30 29 28 27 30 25 20 17 18 16 16 16 21 22 24 22 20 19 19 19 24 25 27 25 23 22 21 18 11 8 9 6 5 15 14 18 20 23 17 14 13 12 24 34 41 45 48 48 49 51 53 53 53 53 54 54 57 60
48 48 49 48 48 49 48 49 49 48 49 44 42 35 27 35 35 33 35 33 32 33 32 33 32 33 34 35 34 34 30 26 25 27 28 27 20 17 17 16 17 15 18 22 20 22 21 13 19 16 25 25 26 25 24 24 24 16 12 13 11 8 7 10 24 20 23 20 22 17 12 22 38 43 44 45 45 48 50 51 52 53 53 53 54 55 56 58
48 48 48 48 48 48 49 49 49 48 48 44 34 27 29 30 28 33 36 34 29 27 31 31 33 33 32 33 35 33 29 26 27 25 29 24 17 16 17 14 15 16 15 16 15 16 13 16 17 22 22 21 25 26 24 18 11 18 19 11 7 10 7 9 19 25 27 23 28 17 18 26 34 33 43 50 53 51 51 50 51 52 53 55 56 56 57 57
47 48 48 48 48 48 48 49 47 47 44 42 38 34 34 34 35 37 39 35 32 32 36 35 35 34 33 36 35 31 29 28 27 26 27 21 15 16 16 16 16 14 12 13 13 12 10 20 25 16 16 16 22 22 20 20 8 12 21 20 16 16 16 12 23 21 23 22 26 14 11 19 28 29 32 46 49 48 49 51 51 52 53 54 55 56 56 58
47 48 48 48 48 47 48 46 46 41 33 26 24 33 34 30 33 42 38 31 24 22 33 32 36 31 35 31 33 29 28 24 26 27 26 22 22 14 16 16 15 11 11 13 11 13 10 29 18 20 20 17 15 15 16 17 11 14 15 18 17 16 19 19 19 20 15 14 20 30 17 14 23 25 35 45 45 46 49 50 50 52 52 52 53 55 55 55
47 47 47 48 47 47 41 35 43 39 27 18 33 37 31 30 46 45 37 29 21 25 26 31 33 34 35 32 30 28 18 19 26 27 25 24 18 16 13 11 14 14 13 19 18 10 13 15 17 18 23 19 17 14 21 18 14 10 28 14 16 15 18 21 19 16 14 24 26 24 17 17 12 15 34 42 42 44 47 48 50 49 52 52 54 54 56 55
47 48 47 47 47 46 45 45 40 31 17 32 34 31 30 39 47 47 36 14 12 26 24 27 25 34 33 31 31 22 23 26 21 25 24 22 19 17 14 11 10 8 15 17 11 24 21 21 21 20 19 15 12 11 19 17 14 16 24 16 14 13 19 17 16 18 17 22 16 13 16 15 11 25 36 41 39 42 43 47 48 49 50 53 54 55 56 56
47 47 47 47 47 47 45 45 43 32 31 34 34 29 32 49 45 37 22 11 24 18 23 25 28 30 27 31 30 27 22 23 17 24 23 21 19 17 12 13 12 9 12 14 11 21 18 16 14 14 14 13 13 13 16 18 15 24 20 18 16 16 17 17 15 13 19 18 14 15 20 12 9 21 22 32 36 38 40 43 44 47 49 50 53 55 57 56
47 47 47 47 46 47 47 46 44 38 36 37 33 34 45 48 41 24 19 12 26 19 20 21 23 22 27 26 26 26 23 21 20 22 21 20 19 17 17 17 12 12 12 12 12 15 18 26 27 16 13 13 17 21 20 16 19 20 18 13 13 13 17 18 18 18 18 13 14 20 25 17 9 17 23 26 30 32 33 37 42 44 46 48 53 55 56 55
47 47 47 47 43 42 42 37 39 37 39 40 39 41 47 42 30 20 18 10 19 20 21 21 20 21 23 22 20 23 23 19 20 22 20 20 18 16 16 15 14 14 15 15 14 11 13 15 15 14 16 16 16 16 19 20 20 19 16 13 12 16 18 18 21 19 15 11 19 20 23 22 10 13 18 32 33 36 36 36 36 37 38 44 51 51 53 54
47 47 47 46 44 44 35 23 33 38 42 44 41 39 36 23 25 18 14 15 12 21 19 19 18 20 20 21 18 20 21 21 20 20 19 18 20 16 16 17 18 14 12 14 12 12 15 11 11 15 23 15 14 13 16 18 18 17 16 13 12 13 12 10 14 13 11 11 22 21 20 17 11 28 25 32 36 40 43 41 41 40 36 38 41 49 51 53
47 47 48 46 46 46 43 40 40 45 47 42 36 31 27 20 20 18 15 11 14 24 18 18 19 16 16 18 17 19 19 19 19 20 20 18 18 17 16 15 14 16 13 19 16 16 14 12 11 11 16 18 14 12 15 15 16 15 14 16 11 6 9 10 9 11 12 20 24 22 24 15 13 26 33 37 42 42 45 46 45 44 47 47 38 45 50 53
47 48 48 48 46 45 45 50 47 45 44 44 31 29 25 18 17 27 19 12 13 23 20 17 14 13 12 15 17 16 18 19 19 18 20 20 18 22 17 16 16 14 21 24 13 15 12 15 13 14 14 15 14 12 13 16 15 13 12 9 13 11 10 11 5 7 10 11 23 23 20 14 13 22 32 42 44 44 44 44 47 47 47 48 43 43 49 51
47 49 51 51 49 47 48 46 50 49 46 36 26 26 22 20 16 19 19 12 8 13 14 16 10 12 15 15 18 18 15 18 19 18 18 19 20 20 21 17 18 16 16 18 23 23 10 12 11 12 16 15 12 12 12 13 14 14 12 10 12 13 13 8 18 17 12 11 18 22 18 21 19 33 36 41 43 45 45 47 48 47 46 47 46 47 49 52
47 48 48 46 43 46 46 45 49 49 43 27 21 20 19 21 12 10 8 14 14 8 3 10 7 10 14 14 19 18 19 19 17 18 18 17 18 18 18 18 18 18 20 18 24 16 13 14 12 13 15 13 11 14 13 13 17 18 13 15 12 17 12 18 24 33 26 17 10 19 21 20 28 28 35 42 41 43 45 45 45 46 47 49 48 49 51 53
44 47 45 43 40 42 47 47 46 46 40 25 20 18 22 18 9 8 20 13 16 13 9 2 9 9 16 15 19 16 17 17 18 16 20 18 20 18 18 18 18 18 18 20 21 19 17 11 13 12 11 12 12 12 12 12 12 15 14 11 17 16 18 19 9 16 11 9 16 22 18 16 16 21 31 36 41 43 43 44 45 49 49 49 50 51 51 51
46 46 46 38 39 45 47 47 47 42 25 23 20 24 19 16 16 7 22 18 17 16 11 6 16 6 12 16 18 17 19 17 18 16 17 17 22 18 17 17 18 17 18 18 19 24 19 15 12 12 11 11 11 11 11 11 12 10 11 15 12 14 11 15 15 13 12 11 9 19 15 14 14 20 25 33 38 43 44 44 46 45 47 49 50 49 49 51
47 43 40 39 40 45 47 48 45 31 21 18 20 20 22 22 20 13 22 24 20 18 11 10 13 11 14 16 17 18 19 20 18 16 15 19 16 25 18 18 17 17 17 17 18 25 25 18 16 13 11 10 10 9 11 12 11 11 12 12 13 18 17 13 14 12 14 9 12 17 16 11 17 24 28 34 42 42 44 45 43 43 45 47 50 49 48 50
42 36 35 43 41 46 47 47 41 26 15 14 17 19 22 21 20 20 23 21 17 15 14 16 10 13 9 14 15 16 19 19 22 21 15 24 16 20 19 17 16 16 18 18 16 20 22 29 16 13 13 9 10 12 11 10 13 12 13 13 14 21 23 19 24 13 12 11 10 11 11 12 29 36 36 40 43 44 45 45 44 44 46 49 49 49 50 50
43 35 37 43 41 46 47 44 32 21 14 16 17 15 23 17 23 22 22 27 19 21 19 19 19 15 18 16 11 15 16 18 21 22 18 18 17 21 24 23 22 19 19 16 16 24 21 20 16 14 12 11 10 13 13 12 11 11 13 12 10 13 13 10 11 15 15 11 12 10 11 18 36 39 39 37 42 46 45 45 44 42 44 48 49 50 50 51
36 30 33 42 46 46 43 31 27 29 21 14 19 17 22 29 21 21 21 25 22 17 22 18 17 16 16 14 11 16 16 16 18 21 22 22 20 20 23 25 22 18 17 20 20 32 34 25 20 16 14 11 13 14 15 14 13 12 14 10 10 15 14 10 9 13 17 12 15 12 11 23 38 38 40 41 40 41 46 45 45 44 47 48 49 50 52 52
36 34 38 40 48 44 38 29 33 28 24 19 28 23 23 27 19 19 18 19 16 16 19 18 15 18 15 11 14 12 12 18 17 19 22 22 23 25 27 23 25 20 20 22 22 24 44 24 17 14 13 12 14 14 17 13 12 10 13 20 18 16 17 16 11 16 14 16 13 9 13 21 38 40 42 43 41 42 45 47 47 46 47 47 49 49 50 52
36 35 34 37 47 43 36 24 22 21 23 28 29 21 23 19 22 19 15 19 16 21 18 18 18 13 20 21 18 11 17 20 17 17 21 21 25 27 27 28 24 23 30 26 26 35 25 29 24 16 15 13 13 12 12 12 11 15 16 25 22 19 21 29 23 24 14 16 12 8 9 24 39 40 41 42 38 40 46 48 48 47 48 47 48 51 52 52
36 39 37 38 40 40 35 35 32 29 28 28 29 24 26 22 25 26 24 22 23 23 25 21 24 25 18 21 21 21 20 19 29 22 25 23 24 25 28 30 27 27 29 31 35 25 26 28 25 16 16 14 13 12 13 13 13 22 22 21 20 17 26 22 13 14 11 18 15 12 10 35 37 40 40 42 42 42 43 46 48 48 47 47 49 50 50 50
31 28 32 37 39 37 35 37 35 33 31 28 29 29 26 24 24 25 25 24 23 23 22 22 21 23 23 23 24 21 20 24 21 29 20 23 23 25 28 30 29 26 36 42 37 33 30 31 29 25 19 18 17 17 21 18 18 14 17 21 23 24 25 30 22 11 10 22 17 16 22 31 34 37 38 40 40 41 44 46 46 47 49 49 49 49 49 48
33 30 31 28 36 34 35 33 33 33 33 36 26 30 28 26 25 23 24 26 23 23 23 22 20 26 29 25 30 27 24 22 21 25 26 24 22 25 24 30 34 38 43 38 37 34 34 29 27 28 25 21 21 19 17 18 20 18 19 23 22 25 28 31 19 16 32 21 14 32 34 35 34 36 37 39 41 43 45 46 48 48 47 47 47 47 47 46
28 33 32 36 32 30 32 31 33 31 33 30 30 31 27 25 26 28 24 23 22 24 28 23 21 19 21 29 31 29 28 28 28 28 25 24 22 24 22 23 25 33 35 31 33 32 31 26 29 29 23 26 25 23 21 19 19 20 22 27 27 27 30 31 30 30 35 23 11 35 36 35 34 36 37 38 40 41 43 45 47 47 45 46 46 45 45 45
32 32 33 37 32 34 35 35 38 32 33 35 28 30 28 24 23 21 23 27 22 24 22 26 24 19 21 23 29 29 32 26 27 31 32 30 30 27 24 22 21 24 27 30 30 37 30 25 28 23 22 21 24 27 27 24 22 20 22 22 24 28 30 32 33 33 35 36 36 37 36 35 35 36 37 38 40 41 42 44 44 44 43 42 42 42 42 42
31 33 30 34 35 33 36 35 38 36 33 36 28 30 24 26 25 21 19 24 27 26 23 25 19 19 21 22 27 29 30 32 32 28 31 35 29 30 30 30 25 23 24 30 29 35 36 28 31 25 23 24 27 29 29 27 26 25 25 25 26 26 27 31 32 34 35 35 36 36 35 33 34 37 37 38 40 40 40 41 41 42 40 40 39 39 39 40
38 38 39 30 29 29 31 34 37 35 31 33 31 32 28 26 26 21 20 19 22 25 23 25 21 22 21 22 25 24 22 28 29 29 29 29 27 25 28 27 20 27 22 30 31 34 35 29 31 28 23 25 25 29 27 27 24 25 26 31 31 31 29 30 28 33 34 31 35 33 31 31 35 35 35 35 34 34 34 35 36 37 37 37 37 38 38 39
41 38 40 35 24 28 27 28 34 36 29 32 33 32 31 30 25 24 23 19 19 20 23 24 23 27 25 27 26 25 24 24 25 24 23 21 22 21 20 19 18 25 25 28 32 30 31 31 29 28 24 25 26 26 27 28 28 24 25 33 33 32 29 28 28 31 33 35 32 25 30 33 35 35 33 31 30 28 28 29 29 30 31 31 33 36 38 37